Location: Unspecified
(44.4377°N, 88.0525°W)
Time: 23:07:22
(UTC-06:00)

Resurs 1-4 Rocket - Visible Passes

Search period start: 22 February 2017 00:00
Search period end: 04 March 2017 00:00
Orbit: 801 x 813 km, 98.5° (Epoch: 22 February)

Date Brightness Start Highest point End Pass type
(mag) Time Alt. Az. Time Alt. Az. Time Alt. Az.
22 Feb 4.7 03:32:03 10° N 03:32:07 10° N 03:32:07 10° N visible
23 Feb 4.7 03:07:09 10° N 03:07:22 11° N 03:07:22 11° N visible
24 Feb 4.9 02:42:25 10° N 02:42:38 11° N 02:42:38 11° N visible
25 Feb 5.0 02:17:52 10° NNE 02:17:53 10° NNE 02:17:53 10° NNE visible
25 Feb 4.5 03:58:56 10° NNW 03:58:59 10° NNW 03:58:59 10° NNW visible
26 Feb 4.5 03:33:44 10° N 03:34:15 12° N 03:34:15 12° N visible
27 Feb 4.5 03:08:48 10° N 03:09:30 14° N 03:09:30 14° N visible
28 Feb 4.6 02:44:04 10° N 02:44:46 14° N 02:44:46 14° N visible
01 Mar 4.8 02:19:30 10° NNE 02:20:02 13° NNE 02:20:02 13° NNE visible
01 Mar 4.4 04:00:38 10° NNW 04:01:08 12° NNW 04:01:08 12° NNW visible
02 Mar 5.0 01:55:07 10° NNE 01:55:18 11° NNE 01:55:18 11° NNE visible
02 Mar 4.3 03:35:24 10° N 03:36:23 14° NNW 03:36:23 14° NNW visible
03 Mar 4.3 03:10:28 10° N 03:11:39 17° N 03:11:39 17° N visible
